Location: Warszawa
(52.2500°N, 21.0000°E)
Time: 14:01:19
(UTC+02:00)

Vanguard 2 - Pass Details

Date: 15 February 2023
Orbit: 553 x 2927 km, 32.9° (Epoch: 27 March)

Event Time Altitude Azimuth Distance (km) Brightness Sun altitude
Rises 18:52:13 0° 226° (SW) 3,957 11.8 -19.4°
Reaches altitude 10° 18:55:13 10° 211° (SSW) 3,314 11.1 -19.9°
Maximum altitude 19:01:45 24° 162° (SSE) 3,027 10.3 -20.9°
Enters shadow 19:06:07 19° 134° (SE) 3,698 10.5 -21.5°
Drops below altitude 10° 19:10:52 10° 117° (ESE) 4,789 - -22.2°
Sets 19:16:24 0° 106° (ESE) 6,185 - -23.1°
